This is the latest recevied weather packets stored in our database for station/object W6JCZ-13. If no packets are shown the sender has not sent any weather packets the latest 10 day(s).
| Time | Temp. | Humidity | Pressure | Rain* | Wind** | Luminosity | Snow |
|---|---|---|---|---|---|---|---|
| 1777684817 | 26.67° C | 55% | 1008 hPa | 0 mm | - | - | - |
| 1777684218 | 26.67° C | 56% | 1008 hPa | 0 mm | - | - | - |
| 1777683617 | 27.22° C | 53% | 1008.1 hPa | 0 mm | - | - | - |
| 1777683017 | 27.22° C | 51% | 1008.2 hPa | 0 mm | - | - | - |
| 1777682417 | 27.78° C | 53% | 1008.3 hPa | 0 mm | - | - | - |
| 1777681217 | 27.78° C | 52% | 1008.4 hPa | 0 mm | - | - | - |
| 1777680617 | 28.33° C | 49% | 1008.4 hPa | 0 mm | - | - | - |
| 1777680017 | 28.33° C | 53% | 1008.4 hPa | 0 mm | - | - | - |
| 1777679417 | 28.33° C | 51% | 1008.4 hPa | 0 mm | - | - | - |
| 1777678817 | 28.33° C | 51% | 1008.4 hPa | 0 mm | - | - | - |
| 1777678217 | 28.89° C | 51% | 1008.5 hPa | 0 mm | - | - | - |
| 1777677617 | 29.44° C | 46% | 1008.6 hPa | 0 mm | - | - | - |
| 1777677017 | 29.44° C | 47% | 1008.6 hPa | 0 mm | - | - | - |
| 1777676417 | 29.44° C | 47% | 1008.8 hPa | 0 mm | - | - | - |
| 1777675817 | 29.44° C | 45% | 1009 hPa | 0 mm | - | - | - |
| 1777675217 | 29.44° C | 44% | 1009.3 hPa | 0 mm | - | - | - |
| 1777674617 | 28.89° C | 44% | 1009.6 hPa | 0 mm | - | - | - |
| 1777674017 | 30° C | 46% | 1009.8 hPa | 0 mm | - | - | - |
| 1777673417 | 28.89° C | 46% | 1010 hPa | 0 mm | - | - | - |
| 1777672817 | 28.89° C | 45% | 1010.1 hPa | 0 mm | - | - | - |
| 1777672217 | 28.89° C | 45% | 1010.2 hPa | 0 mm | - | - | - |
| 1777671617 | 29.44° C | 46% | 1010.4 hPa | 0 mm | - | - | - |
| 1777671017 | 28.89° C | 47% | 1010.4 hPa | 0 mm | - | - | - |
| 1777670417 | 28.89° C | 48% | 1010.4 hPa | 0 mm | - | - | - |
| 1777669816 | 28.89° C | 47% | 1010.4 hPa | 0 mm | - | - | - |
* Rain latest hour (hover to see other rain measurements)
** Current wind speed in m/s (hover to see current wind gust speed)